Regional Weather Roundup
Issued by NWS

Home | Current Version | Previous Version | Graphics & Text | Print | Product List | Glossary On
Versions: 1 2 3 4 5 6 7 8 9 10 11 12 13 14 15 16 17 18 19 20 21 22 23 24 25 26 27 28 29 30 31 32 33 34 35 36 37 38 39 40 41 42 43 44 45 46 47 48 49 50
000
ASUS43 KLSX 271859
RWRMO

WEATHER SUMMARY FOR MISSOURI
NATIONAL WEATHER SERVICE SPRINGFIELD MO
200 PM CDT FRI MAR 27 2015

NOTE: "FAIR" INDICATES FEW OR NO CLOUDS BELOW 12,000 FEET WITH NO
       SIGNIFICANT WEATHER AND/OR OBSTRUCTIONS TO VISIBILITY.
       CURRENT SKY AND/OR WEATHER CONDITIONS ARE NOT AVAILABLE FOR
       CHILLICOTHE AND FARMINGTON.

MOZ001>031-035>038-043-044-053-054-272000-
...NORTHERN AND WESTERN MISSOURI...

CITY           SKY/WX    TMP DP  RH WIND       PRES   REMARKS
KANSAS CTY INT PTSUNNY   41  19  41 N9        30.23F
KANSAS C DTWN  FAIR      43  18  36 VRB3      30.24F
LEE`S SUMMIT   FAIR      42  19  39 N13G18    30.23F
ST JOSEPH      FAIR      41  19  41 NE9       30.25F
CHILLICOTHE      N/A     42  19  39 N6        30.23F
KIRKSVILLE     FAIR      42  17  36 NW13      30.19F

$$
MOZ066>068-077>081-088>096-101>105-272000-
...SOUTHWEST MISSOURI...

CITY           SKY/WX    TMP DP  RH WIND       PRES   REMARKS
SPRINGFIELD    FAIR      45  22  40 NW14G28   30.17F
JOPLIN         PTSUNNY   46  27  47 N12G23    30.22F

$$
MOZ032>034-039>042-045>050-055>058-069>072-272000-
...CENTRAL MISSOURI...

CITY           SKY/WX    TMP DP  RH WIND       PRES   REMARKS
COLUMBIA       FAIR      40  21  46 N12G20    30.20S
JEFFERSON CITY PTSUNNY   40  17  39 MISG      30.21F
ROLLA          PTSUNNY   39  20  46 N12G22    30.15F
SEDALIA        FAIR      43  23  45 N14       30.22F
OSAGE BEACH    PTSUNNY   43  21  42 N9        30.19F

$$
MOZ051-052-059>065-272000-
...EAST CENTRAL MISSOURI...

CITY           SKY/WX    TMP DP  RH WIND       PRES   REMARKS
ST LOUIS INTL  PTSUNNY   40  21  46 N12       30.18F
SPIRIT OF STL  CLOUDY    39  21  48 N9        30.18F
ST CHARLES     CLOUDY    40  19  43 NW8       30.18F

$$
MOZ072>076-082>087-097>100-106>115-272000-
...SOUTH CENTRAL AND SOUTHEAST MISSOURI...

CITY           SKY/WX    TMP DP  RH WIND       PRES   REMARKS
CAPE GIRARDEAU CLOUDY    39  29  67 N10       30.14S
FARMINGTON     CLOUDY    37  19  48 NW10      30.17F
POPLAR BLUFF   CLOUDY    45  27  49 NW15      30.13S
WEST PLAINS    CLOUDY    44  27  51 MISG      30.15F

$$


USA.gov is the U.S. government's official web portal to all federal, state and local government web resources and services.